STARLINK-34601

Satellite information

Favourite Embed

Satellite Type and Status

PAYLOADIN ORBIT

Key statistics

Satellite STARLINK-34601 at a glance.

Uptime

27

Days in orbit

Revolutions

≈ 15.7

Per day

Orbit

LEO

Low Earth Orbit

Inclination

53.2

Latest

Satellite identification and parameters

Extended collection of information and parameters for STARLINK-34601.

Object identification

Identified? True

Debris? False

Object name: STARLINK-34601

International designator: 2025-167G

Object number (NORAD): 65084

Object ID (CCSDS): 65084

Country: UNITED STATES OF AMERICA (US)

Current information (Y/N): Y

RCS size: LARGE

Orbital parameters

Period: 91.47 minutes

Inclination: 53.158 deg

SMA: 6724.816 km

Apoapsis: 347.273 km

Periapsis: 346.088 km

RAAN: 197.8618 deg

Eccentricy: 0.00008813

Argument of periapsis: 53.2066 deg

Mean anomaly: 306.9035 deg

Mean motion: 15.74280733 rev/day

Mean motion (dot): 0.00286907 rev/day2

B* drag term: 0.0018897925 1/REarth

Two-line elements (TLE)

Creation date: Aug. 31, 2025, 2:26 a.m.

Reference frame: TEME

Reference center: EARTH

Epoch: Aug. 30, 2025, 2:37 p.m. UTC

TLE line 0: 0 STARLINK-34601

TLE line 1: 1 65084U 25167G 25242.60948186 .00286907 00000-0 18898-2 0 9999

TLE line 2: 2 65084 53.1580 197.8618 0000881 53.2066 306.9035 15.74280733 4174

Live tracking on map

Real-time ground track for satellite STARLINK-34601.

In-orbit conjunctions

There are no conjunctions computed for STARLINK-34601, at the moment. Check back to stay up to date, as we update our databases every day.

Go to all conjunctions

Associated space launch

A batch of 28 satellites for the Starlink mega-constellation - SpaceX's project for space-based Internet communication system.

STARLINK-34601 was lifted into orbit during the mission ‘Falcon 9 Block 5 | Starlink Group 10-30’, on board a Falcon 9 space rocket.

The launch took place on Aug. 4, 2025, 7:57 a.m. from Space Launch Complex 40.

For more information about the launch, click the button.

Launch to space Falcon 9 Block 5 | Starlink Group 10-30
Falcon 9 Block 5 | Starlink Group 10-30

Agency: SpaceX

Status: Launch Successful

Launch date: Aug. 4, 2025, 7:57 a.m. UTC

Rocket: Falcon 9

Launch pad: Space Launch Complex 40

Location: Cape Canaveral SFS, FL, USA

...

Latest news about this satellite

News about space launch
Live coverage: Starlink mission marks SpaceX’s 450th flight-proven Falcon booster launch

The Starlink 10-30 mission will add 28 more satellites to SpaceX’s low Earth orbit megaconstellation. Liftoff of the Falcon 9 rocket from pad 40 at Cape Canaveral Space Force Station is set for 1:03 a.m. EDT (0503 UTC) on Monday.


Newsletter sign-up

Weekly statistics, charts and insights to help you stay on top of the space industry.